This is the latest recevied weather packets stored in our database for station/object WD0REW. If no packets are shown the sender has not sent any weather packets the latest 1 day(s).
| Time | Temp. | Humidity | Pressure | Rain* | Wind** | Luminosity | Snow |
|---|---|---|---|---|---|---|---|
| 1778044252 | 7.22° C | 89% | 1013.9 hPa | 0 mm | 0.45 m/s, 356° | 0 W/m² | - |
| 1778043950 | 7.22° C | 88% | 1013.9 hPa | 0 mm | 0.45 m/s, 8° | 0 W/m² | - |
| 1778043647 | 7.22° C | 87% | 1013.9 hPa | 0 mm | 0.45 m/s, 357° | 0 W/m² | - |
| 1778043343 | 7.22° C | 88% | 1013.4 hPa | 0 mm | 0 m/s | 0 W/m² | - |
| 1778043040 | 7.22° C | 88% | 1013.5 hPa | 0 mm | 0 m/s | 0 W/m² | - |
| 1778042738 | 7.22° C | 89% | 1013.4 hPa | 0 mm | 0.45 m/s, 349° | 0 W/m² | - |
| 1778042435 | 7.22° C | 88% | 1013.2 hPa | 0 mm | 0.45 m/s, 44° | 0 W/m² | - |
| 1778042132 | 7.22° C | 89% | 1013.3 hPa | 0 mm | 0.45 m/s, 352° | 0 W/m² | - |
| 1778041830 | 7.22° C | 89% | 1013.1 hPa | 0 mm | 0.89 m/s, 348° | 0 W/m² | - |
| 1778041529 | 7.22° C | 89% | 1013.2 hPa | 0 mm | 1.34 m/s, 352° | 0 W/m² | - |
| 1778041227 | 7.22° C | 89% | 1013.1 hPa | 0 mm | 0.89 m/s, 352° | 0 W/m² | - |
| 1778040925 | 7.22° C | 90% | 1013 hPa | 0 mm | 1.34 m/s, 353° | 0 W/m² | - |
| 1778040621 | 7.22° C | 90% | 1013.2 hPa | 0 mm | 0 m/s | 0 W/m² | - |
| 1778040319 | 7.22° C | 89% | 1013.2 hPa | 0 mm | 1.79 m/s, 345° | 0 W/m² | - |
| 1778040015 | 7.22° C | 89% | 1013.4 hPa | 0 mm | 0 m/s | 0 W/m² | - |
| 1778039712 | 7.22° C | 89% | 1013.3 hPa | 0 mm | 1.34 m/s, 347° | 0 W/m² | - |
| 1778039409 | 7.22° C | 89% | 1013.2 hPa | 0 mm | 0.89 m/s, 354° | 0 W/m² | - |
| 1778039106 | 7.22° C | 89% | 1013.5 hPa | 0 mm | 0.89 m/s, 0° | 0 W/m² | - |
| 1778038803 | 7.22° C | 89% | 1013.3 hPa | 0 mm | 1.34 m/s, 351° | 0 W/m² | - |
| 1778038500 | 7.22° C | 89% | 1013.4 hPa | 0 mm | 0.89 m/s, 351° | 0 W/m² | - |
| 1778038197 | 7.22° C | 90% | 1013.2 hPa | 0 mm | 2.24 m/s, 336° | 0 W/m² | - |
| 1778037895 | 7.22° C | 90% | 1013.5 hPa | 0 mm | 0 m/s | 0 W/m² | - |
| 1778037591 | 7.22° C | 90% | 1013.4 hPa | 0 mm | 0 m/s | 0 W/m² | - |
| 1778037288 | 7.22° C | 90% | 1012.6 hPa | 0 mm | 0 m/s | 0 W/m² | - |
| 1778036986 | 7.22° C | 90% | 1012.6 hPa | 0 mm | 0.45 m/s, 357° | 0 W/m² | - |
* Rain latest hour (hover to see other rain measurements)
** Current wind speed in m/s (hover to see current wind gust speed)